Location: Dumpton Point
(51.3500°N, 1.4433°E)
Time: 06:56:18
(UTC+00:00)

Envisat - Pass Details

Date: 12 December 2021
Orbit: 764 x 766 km, 98.2° (Epoch: 17 January)

Event Time Altitude Azimuth Distance (km) Brightness Sun altitude
Rises 03:52:52 0° 24° (NNE) 3,245 6.6 -35.6°
Reaches altitude 10° 03:55:40 10° 39° (NE) 2,313 5.9 -35.2°
Maximum altitude 03:59:40 23° 91° (E) 1,597 5.2 -34.6°
Drops below altitude 10° 04:03:38 10° 142° (SE) 2,299 5.8 -34.0°
Sets 04:06:23 0° 157° (SSE) 3,219 6.4 -33.5°
